Date String (YYYY-MM-DD hh:mm:ss) UTC,Instrument flags,absolute air pressure of the measurement (hPa),sample flow rate (lpm),inlet stack bypass flow (lpm),air temperature of the measurement (°C),ambient temperature measured by the external sensor (°C),aerosol sample conditioner tube jacket temperature (°C),OPC LED temperature (°C),internal box temperature (°C),relative humidity of the measurement (%),span deviation,mass concentration of particles derived from Lorenz-Mie calculation of OPC scattering (μg/m³),mass concentration of particles derived from Lorenz-Mie calculation of OPC scattering (μg/m³),mass concentration of particles derived from Lorenz-Mie calculation of OPC scattering (μg/m³)
DateTimeUTC,F1_M11,P_M11,Q1_M11,Q2_M11,T1_M11,T2_M11,T3_M11,T4_M11,T5_M11,U1_M11,ZSPAN_M11,X0_M11,X2_M11,X1_M11
2023-06-30 10:00:00,SystemResetWarning,0834.4,5.01,000.00,029.7,028.4,000.0,038.3,031.3,28.8,0000.0,0004.87,0002.36,0001.82
2023-06-30 10:01:00,SystemResetWarning,0834.2,5.01,000.00,029.7,028.4,000.0,038.3,031.3,28.9,0000.0,0004.82,0002.36,0001.83
2023-06-30 10:02:00,SystemResetWarning,0834.2,5.01,000.00,029.8,028.4,000.0,038.4,031.3,28.9,0000.0,0004.71,0002.31,0001.82
2023-06-30 10:03:00,SystemResetWarning,0834.4,5.00,000.00,029.8,028.4,000.0,038.4,031.3,28.9,0000.0,0004.52,0002.30,0001.82
2023-06-30 10:04:00,SystemResetWarning,0834.3,4.99,000.00,029.8,028.4,000.0,038.4,031.3,28.9,0000.0,0004.41,0002.28,0001.81
2023-06-30 10:05:00,SystemResetWarning,0834.4,5.00,000.00,029.8,028.4,000.0,038.4,031.3,28.9,0000.0,0004.52,0002.33,0001.84
2023-06-30 10:06:00,SystemResetWarning,0834.3,5.00,000.00,029.8,028.4,000.0,038.4,031.3,28.9,0000.0,0004.38,0002.34,0001.85
2023-06-30 10:07:00,SystemResetWarning,0834.2,5.01,000.00,029.8,028.4,000.0,038.4,031.4,28.9,0000.0,0003.45,0002.36,0001.85
2023-06-30 10:08:00,SystemResetWarning,0834.2,4.99,000.00,029.8,028.4,000.0,038.4,031.3,28.9,0000.0,0003.42,0002.37,0001.87
2023-06-30 10:09:00,SystemResetWarning,0834.1,4.99,000.00,029.8,028.4,000.0,038.4,031.4,28.9,0000.0,0003.37,0002.38,0001.88
2023-06-30 10:10:00,SystemResetWarning,0834.1,5.00,000.00,029.8,028.4,000.0,038.4,031.4,28.9,0000.0,0003.46,0002.43,0001.89
2023-06-30 10:11:00,SystemResetWarning,0834.1,5.01,000.00,029.8,028.4,000.0,038.4,031.4,28.9,0000.0,0003.53,0002.45,0001.91
2023-06-30 10:12:00,SystemResetWarning,0834.1,5.01,000.00,029.8,028.4,000.0,038.4,031.4,29.0,0000.0,0003.57,0002.47,0001.92
2023-06-30 10:13:00,SystemResetWarning,0834.0,5.00,000.00,029.8,028.4,000.0,038.4,031.4,29.0,0000.0,0003.86,0002.50,0001.94
2023-06-30 10:14:00,SystemResetWarning,0834.0,4.99,000.00,029.8,028.4,000.0,038.4,031.4,29.0,0000.0,0004.08,0002.55,0001.96
2023-06-30 10:15:00,SystemResetWarning,0834.0,5.00,000.00,029.8,028.4,000.0,038.4,031.4,29.0,0000.0,0004.22,0002.59,0001.97
2023-06-30 10:16:00,SystemResetWarning,0834.0,4.99,000.00,029.8,028.4,000.0,038.4,031.4,28.9,0000.0,0004.28,0002.62,0001.97
2023-06-30 10:17:00,SystemResetWarning,0834.0,5.01,000.00,029.8,028.4,000.0,038.5,031.4,28.9,0000.0,0004.31,0002.66,0001.99
2023-06-30 10:18:00,SystemResetWarning,0834.0,5.00,000.00,029.8,028.4,000.0,038.5,031.4,28.9,0000.0,0004.29,0002.66,0002.00
2023-06-30 10:19:00,SystemResetWarning,0833.9,5.00,000.00,029.8,028.4,000.0,038.5,031.4,28.9,0000.0,0004.28,0002.66,0002.02
2023-06-30 10:20:00,SystemResetWarning,0833.9,4.99,000.00,029.8,028.4,000.0,038.5,031.4,28.9,0000.0,0004.18,0002.61,0002.01
2023-06-30 10:21:00,SystemResetWarning,0834.0,4.99,000.00,029.8,028.4,000.0,038.5,031.4,28.8,0000.0,0004.69,0002.58,0002.01
2023-06-30 10:22:00,SystemResetWarning,0833.8,5.00,000.00,029.8,028.4,000.0,038.5,031.4,28.8,0000.0,0005.17,0002.56,0002.00
2023-06-30 10:23:00,SystemResetWarning,0833.8,5.01,000.00,029.8,028.4,000.0,038.5,031.4,28.8,0000.0,0005.12,0002.54,0001.99
2023-06-30 10:24:00,SystemResetWarning,0833.8,5.00,000.00,029.8,028.4,000.0,038.5,031.4,28.8,0000.0,0005.16,0002.59,0002.00
2023-06-30 10:25:00,SystemResetWarning,0833.8,5.00,000.00,029.8,028.4,000.0,038.5,031.4,28.7,0000.0,0005.22,0002.58,0002.00
2023-06-30 10:26:00,SystemResetWarning,0833.8,5.00,000.00,029.8,028.4,000.0,038.5,031.4,28.6,0000.0,0005.08,0002.56,0002.00
2023-06-30 10:27:00,SystemResetWarning,0833.8,4.99,000.00,029.8,028.4,000.0,038.5,031.4,28.4,0000.0,0005.00,0002.51,0002.00
2023-06-30 10:28:00,SystemResetWarning,0833.8,5.01,000.00,029.8,028.4,000.0,038.5,031.4,28.4,0000.0,0004.97,0002.46,0001.99
2023-06-30 10:29:00,SystemResetWarning,0833.9,5.00,000.00,029.8,028.4,000.0,038.5,031.4,28.3,0000.0,0004.99,0002.47,0001.98
2023-06-30 10:30:00,SystemResetWarning,0833.8,5.00,000.00,029.8,028.4,000.0,038.5,031.4,28.3,0000.0,0005.03,0002.48,0001.98
2023-06-30 10:31:00,SystemResetWarning,0833.8,5.00,000.00,029.8,028.4,000.0,038.5,031.4,28.3,0000.0,0005.07,0002.50,0001.99
2023-06-30 10:32:00,SystemResetWarning,0833.8,5.00,000.00,029.8,028.4,000.0,038.5,031.4,28.3,0000.0,0004.56,0002.51,0002.00
2023-06-30 10:33:00,SystemResetWarning,0833.8,5.00,000.00,029.8,028.4,000.0,038.5,031.4,28.4,0000.0,0004.12,0002.54,0002.02
2023-06-30 10:34:00,SystemResetWarning,0833.8,4.99,000.00,029.8,028.4,000.0,038.5,031.4,28.4,0000.0,0004.56,0002.60,0002.02
2023-06-30 10:35:00,SystemResetWarning,0833.8,4.99,000.00,029.8,028.4,000.0,038.5,031.3,28.4,0000.0,0005.07,0002.54,0002.00
2023-06-30 10:36:00,SystemResetWarning,0833.7,5.00,000.00,029.8,028.3,000.0,038.5,031.3,28.4,0000.0,0004.71,0002.49,0001.98
2023-06-30 10:37:00,SystemResetWarning,0833.7,5.01,000.00,029.8,028.3,000.0,038.5,031.3,28.5,0000.0,0004.72,0002.48,0001.97
2023-06-30 10:38:00,SystemResetWarning,0833.7,5.01,000.00,029.8,028.3,000.0,038.5,031.3,28.5,0000.0,0004.76,0002.51,0001.95
2023-06-30 10:39:00,SystemResetWarning,0833.7,5.00,000.00,029.8,028.3,000.0,038.5,031.3,28.5,0000.0,0004.73,0002.53,0001.95
2023-06-30 10:40:00,SystemResetWarning,0833.8,5.00,000.00,029.8,028.3,000.0,038.5,031.3,28.4,0000.0,0004.70,0002.53,0001.93
2023-06-30 10:41:00,SystemResetWarning,0833.8,4.99,000.00,029.8,028.3,000.0,038.5,031.3,28.4,0000.0,0004.72,0002.53,0001.92
2023-06-30 10:42:00,SystemResetWarning,0833.7,5.00,000.00,029.8,028.3,000.0,038.5,031.3,28.3,0000.0,0004.69,0002.51,0001.91
2023-06-30 10:43:00,SystemResetWarning,0833.7,5.00,000.00,029.8,028.3,000.0,038.5,031.3,28.4,0000.0,0004.78,0002.54,0001.90
2023-06-30 10:44:00,SystemResetWarning,0833.7,5.01,000.00,029.8,028.3,000.0,038.5,031.3,28.4,0000.0,0004.76,0002.55,0001.89
2023-06-30 10:45:00,SystemResetWarning,0833.7,5.01,000.00,029.8,028.3,000.0,038.5,031.3,28.4,0000.0,0004.44,0002.50,0001.88
2023-06-30 10:46:00,SystemResetWarning,0833.7,5.00,000.00,029.8,028.3,000.0,038.5,031.3,28.4,0000.0,0003.78,0002.51,0001.88
2023-06-30 10:47:00,SystemResetWarning,0833.7,5.00,000.00,029.7,028.3,000.0,038.5,031.3,28.4,0000.0,0003.89,0002.54,0001.89
2023-06-30 10:48:00,SystemResetWarning,0833.6,5.00,000.00,029.7,028.2,000.0,038.4,031.2,28.3,0000.0,0004.07,0002.58,0001.90
2023-06-30 10:49:00,SystemResetWarning,0833.6,5.00,000.00,029.7,028.2,000.0,038.4,031.2,28.3,0000.0,0004.21,0002.57,0001.91
2023-06-30 10:50:00,SystemResetWarning,0833.6,5.00,000.00,029.7,028.2,000.0,038.4,031.2,28.2,0000.0,0004.08,0002.52,0001.91
2023-06-30 10:51:00,SystemResetWarning,0833.5,5.00,000.00,029.7,028.2,000.0,038.4,031.3,28.1,0000.0,0004.55,0002.48,0001.91
2023-06-30 10:52:00,SystemResetWarning,0833.5,5.00,000.00,029.7,028.2,000.0,038.4,031.2,28.1,0000.0,0004.83,0002.50,0001.91
2023-06-30 10:53:00,SystemResetWarning,0833.5,5.00,000.00,029.7,028.2,000.0,038.4,031.2,28.1,0000.0,0005.13,0002.51,0001.90
2023-06-30 10:54:00,SystemResetWarning,0833.4,4.99,000.00,029.7,028.2,000.0,038.4,031.2,28.1,0000.0,0005.26,0002.51,0001.90
2023-06-30 10:55:00,SystemResetWarning,0833.4,4.99,000.00,029.7,028.2,000.0,038.4,031.2,28.1,0000.0,0005.32,0002.49,0001.90
2023-06-30 10:56:00,SystemResetWarning,0833.5,5.00,000.00,029.7,028.2,000.0,038.4,031.2,28.1,0000.0,0005.45,0002.54,0001.90
2023-06-30 10:57:00,SystemResetWarning,0833.5,4.99,000.00,029.7,028.1,000.0,038.4,031.2,28.2,0000.0,0005.49,0002.58,0001.91
2023-06-30 10:58:00,SystemResetWarning,0833.6,4.99,000.00,029.7,028.1,000.0,038.4,031.2,28.2,0000.0,0006.08,0002.67,0001.93
2023-06-30 10:59:00,SystemResetWarning,0833.6,5.00,000.00,029.7,028.1,000.0,038.4,031.2,28.2,0000.0,0006.03,0002.69,0001.94
